Stations météo

réclame
Mon MeteoGroup
Shoreham Airport, Grande-Bretagne (3876): Température de l'air & dewpoint: 29.05.2020 02:00:00 - 04.06.2020 02:00:00 (BST)Shoreham Airport, Grande-Bretagne (3876): Vitesse du vent & gusts: 29.05.2020 02:00:00 - 04.06.2020 02:00:00 (BST)Shoreham Airport, Grande-Bretagne (3876): Direction du vent: 29.05.2020 02:00:00 - 04.06.2020 02:00:00 (BST)Shoreham Airport, Grande-Bretagne (3876): reduced air pressure: 29.05.2020 02:00:00 - 04.06.2020 02:00:00 (BST)Shoreham Airport, Grande-Bretagne (3876): visibility: 29.05.2020 02:00:00 - 04.06.2020 02:00:00 (BST)Shoreham Airport, Grande-Bretagne (3876): Quantités de précipitations: 29.05.2020 02:00:00 - 04.06.2020 02:00:00 (BST)
Date & Time tt [°C] td [°C] ff [km/h] ff [knt] fx [km/h] fx [knt] dd ppp [hPa] vv [km] rr [mm]
04.06.2020 02:00:00 11,6 10,5 16 9 - - N 1005,2 - 0,0
04.06.2020 01:00:00 11,8 10,5 15 8 - - N 1005,5 - 0,2
04.06.2020 00:00:00 12,5 9,7 21 11 - - N 1005,8 - 0,0
03.06.2020 23:00:00 13,5 10,1 13 7 - - N 1006,0 - 0,0
03.06.2020 22:00:00 14,3 10,1 24 13 - - N 1006,0 - 0,4
03.06.2020 21:00:00 14,9 11,5 13 7 - - N 1005,6 - 0,0
03.06.2020 20:00:00 16,4 11,7 15 8 - - N 1005,5 - 0,0
03.06.2020 19:00:00 17,6 10,5 18 10 - - N 1005,3 - 0,0
03.06.2020 18:00:00 19,1 11,8 22 12 - - NNE 1005,4 - 0,0
03.06.2020 17:00:00 18,5 12,0 15 8 - - NE 1005,9 10 0,0
03.06.2020 16:00:00 17,4 11,4 11 6 - - ENE 1006,5 10 0,0
03.06.2020 15:00:00 17,8 11,2 11 6 - - NE 1007,0 10 0,0
03.06.2020 14:00:00 18,1 11,5 13 7 - - NNW 1007,0 10 0,0
03.06.2020 13:00:00 17,9 10,4 16 9 - - NW 1007,4 10 0,0
03.06.2020 12:00:00 19,3 11,0 18 10 - - WNW 1007,5 10 0,0
03.06.2020 11:00:00 18,9 9,4 13 7 - - WNW 1007,7 10 0,0
03.06.2020 10:00:00 18,9 9,5 11 6 - - N 1008,0 - 0,0
03.06.2020 09:00:00 17,0 10,0 9 5 - - N 1008,2 - 0,0
03.06.2020 08:00:00 13,6 9,2 15 8 - - N 1008,8 - 0,0
03.06.2020 07:00:00 13,0 10,3 8 4 - - N 1008,9 - 0,0
03.06.2020 06:00:00 11,4 9,2 4 2 - - N 1009,3 - 0,0
03.06.2020 05:00:00 10,5 8,4 5 3 - - NNE 1009,8 - 0,0
03.06.2020 04:00:00 10,4 7,3 8 4 - - N 1010,4 - 0,0
03.06.2020 03:00:00 10,5 7,1 9 5 - - N 1011,0 - 0,0
03.06.2020 02:00:00 11,5 7,1 8 4 - - N 1011,7 - 0,0
03.06.2020 01:00:00 12,5 7,4 13 7 - - N 1012,4 - 0,0
03.06.2020 00:00:00 10,7 8,6 9 5 - - N 1013,0 - 0,0
02.06.2020 23:00:00 11,5 8,8 5 3 - - N 1013,6 - 0,0
02.06.2020 22:00:00 13,0 10,4 4 2 - - NNW 1014,2 - 0,0
02.06.2020 21:00:00 16,6 11,8 0 0 - - N 1014,4 - 0,0
02.06.2020 20:00:00 18,3 12,6 8 4 - - ESE 1014,7 - 0,0
02.06.2020 19:00:00 20,2 11,7 9 5 - - SSE 1014,9 - 0,0
02.06.2020 18:00:00 20,8 11,2 11 6 - - S 1015,3 10 0,0
02.06.2020 17:00:00 21,4 11,6 18 10 - - SW 1016,0 10 0,0
02.06.2020 16:00:00 22,8 10,3 18 10 - - SSW 1016,5 10 0,0
02.06.2020 15:00:00 24,2 9,9 13 7 - - S 1017,2 10 0,0
02.06.2020 14:00:00 24,6 9,7 11 6 - - NNW 1017,9 10 0,0
02.06.2020 13:00:00 24,4 10,9 11 6 - - N 1018,6 10 0,0
02.06.2020 12:00:00 22,8 10,3 18 10 - - N 1018,9 10 0,0
02.06.2020 11:00:00 21,5 9,8 22 12 - - NNW 1019,3 10 0,0
02.06.2020 10:00:00 20,3 10,0 22 12 - - N 1019,5 - -
02.06.2020 09:00:00 18,1 10,5 24 13 - - N 1019,8 - -
02.06.2020 08:00:00 15,4 10,0 24 13 - - N 1020,1 - 0,0
02.06.2020 07:00:00 14,2 9,8 22 12 - - N 1020,1 - 0,0
02.06.2020 06:00:00 12,9 9,1 24 13 - - N 1020,2 - 0,0
02.06.2020 05:00:00 12,5 8,4 22 12 - - N 1020,2 - 0,0
02.06.2020 04:00:00 11,9 8,5 22 12 - - N 1020,4 - 0,0
02.06.2020 03:00:00 12,4 7,9 22 12 - - N 1020,5 - 0,0
02.06.2020 02:00:00 14,2 7,4 18 10 - - NNW 1021,0 - 0,0
02.06.2020 01:00:00 15,3 7,9 16 9 - - N 1021,2 - 0,0
02.06.2020 00:00:00 15,2 8,5 9 5 - - NNW 1021,6 - 0,0
01.06.2020 23:00:00 16,6 8,4 8 4 - - N 1021,3 - 0,0
01.06.2020 22:00:00 17,3 8,9 9 5 - - NNE 1021,3 - 0,0
01.06.2020 21:00:00 18,1 8,4 9 5 - - N 1021,0 - 0,0
01.06.2020 20:00:00 21,0 7,4 16 9 - - NNE 1020,5 - 0,0
01.06.2020 19:00:00 22,7 7,3 16 9 - - NE 1020,4 - 0,0
01.06.2020 18:00:00 23,4 7,9 21 11 - - NE 1020,3 10 0,0
01.06.2020 17:00:00 24,0 8,0 18 10 - - NE 1020,6 10 0,0
01.06.2020 16:00:00 21,5 11,9 15 8 - - SE 1020,8 10 0,0
01.06.2020 15:00:00 20,8 12,3 16 9 - - SSE 1021,1 10 0,0
01.06.2020 14:00:00 24,2 9,3 16 9 - - NE 1021,1 10 0,0
01.06.2020 13:00:00 23,4 9,4 18 10 - - NE 1021,4 10 0,0
01.06.2020 12:00:00 22,7 10,8 22 12 - - NE 1021,7 10 0,0
01.06.2020 11:00:00 22,0 9,0 22 12 - - NNE 1021,9 10 0,0
01.06.2020 10:00:00 20,5 9,3 21 11 - - NE 1021,9 - 0,0
01.06.2020 09:00:00 18,5 12,3 16 9 - - N 1021,9 - 0,0
01.06.2020 08:00:00 14,8 11,1 18 10 - - NNW 1021,9 - 0,0
01.06.2020 07:00:00 12,6 10,3 21 11 - - NNW 1021,7 - 0,0
01.06.2020 06:00:00 11,4 9,8 21 11 - - NNW 1021,7 - 0,0
01.06.2020 05:00:00 10,9 9,6 21 11 - - NNW 1021,4 - 0,0
01.06.2020 04:00:00 11,2 9,5 16 9 - - NNW 1021,5 - 0,0
01.06.2020 03:00:00 13,8 9,7 21 11 - - N 1021,5 - 0,0
01.06.2020 02:00:00 13,9 9,7 21 11 - - N 1021,5 - 0,0
01.06.2020 01:00:00 14,0 9,3 21 11 - - NNE 1021,8 - 0,0
01.06.2020 00:00:00 14,3 8,8 22 12 - - NNE 1021,8 - 0,0
31.05.2020 23:00:00 14,6 8,1 26 14 - - NNE 1021,9 - 0,0
31.05.2020 22:00:00 15,0 7,3 22 12 - - NNE 1022,0 - 0,0
31.05.2020 21:00:00 16,3 6,4 21 11 - - NE 1021,6 - 0,0
31.05.2020 20:00:00 17,9 6,0 26 14 - - NNE 1021,4 - 0,0
31.05.2020 19:00:00 19,5 6,2 28 15 - - NE 1021,3 - 0,0
31.05.2020 18:00:00 21,2 6,6 28 15 - - NNE 1020,9 10 0,0
31.05.2020 17:00:00 22,4 6,2 28 15 48 26 NE 1020,9 10 0,0
31.05.2020 16:00:00 23,6 6,2 22 12 - - NE 1020,8 10 0,0
31.05.2020 15:00:00 22,2 9,7 18 10 - - ESE 1020,9 10 0,0
31.05.2020 14:00:00 21,3 9,4 22 12 - - SE 1021,4 - 0,0
31.05.2020 13:00:00 21,1 9,5 18 10 - - SE 1021,6 10 0,0
31.05.2020 12:00:00 20,8 9,1 21 11 - - ESE 1021,9 10 0,0
31.05.2020 11:00:00 20,6 9,0 15 8 - - ESE 1021,6 10 0,0
31.05.2020 10:00:00 21,1 9,0 18 10 - - ENE 1021,5 - 0,0
31.05.2020 09:00:00 20,2 9,8 11 6 - - ENE 1021,4 - 0,0
31.05.2020 08:00:00 18,3 9,2 15 8 - - NE 1021,3 - 0,0
31.05.2020 07:00:00 15,2 9,3 11 6 - - N 1021,1 - 0,0
31.05.2020 06:00:00 13,1 8,6 13 7 - - N 1020,7 - 0,0
31.05.2020 05:00:00 12,8 8,4 16 9 - - NNW 1020,4 - 0,0
31.05.2020 04:00:00 12,9 8,3 15 8 - - NNW 1020,4 - 0,0
31.05.2020 03:00:00 14,8 8,2 16 9 - - NNE 1020,5 - 0,0
31.05.2020 02:00:00 14,8 8,0 15 8 - - NE 1020,8 - 0,0
31.05.2020 01:00:00 15,1 7,5 21 11 - - NE 1020,9 - 0,0
31.05.2020 00:00:00 15,6 7,0 21 11 - - NE 1021,0 - 0,0
30.05.2020 23:00:00 15,8 6,9 18 10 - - NE 1021,0 - 0,0
30.05.2020 22:00:00 16,3 7,2 16 9 - - NE 1020,9 - 0,0
30.05.2020 21:00:00 17,6 7,7 15 8 - - NE 1020,5 - 0,0
30.05.2020 20:00:00 20,1 9,1 18 10 - - NE 1020,3 - 0,0
30.05.2020 19:00:00 20,6 9,8 11 6 - - ESE 1020,1 - 0,0
30.05.2020 18:00:00 21,4 8,7 16 9 - - E 1020,3 10 0,0
30.05.2020 17:00:00 20,6 10,3 16 9 - - ESE 1020,6 10 0,0
30.05.2020 16:00:00 20,3 10,7 15 8 - - ESE 1020,9 10 0,0
30.05.2020 15:00:00 20,6 9,7 16 9 - - ESE 1021,1 10 0,0
30.05.2020 14:00:00 21,3 9,6 18 10 - - SE 1021,4 10 0,0
30.05.2020 13:00:00 22,3 9,2 15 8 - - SE 1021,9 10 0,0
30.05.2020 12:00:00 23,1 9,3 15 8 - - ESE 1022,3 10 0,0
30.05.2020 11:00:00 21,9 10,0 11 6 - - SSE 1022,6 10 0,0
30.05.2020 10:00:00 20,1 12,3 9 5 - - NNW 1022,9 - 0,0
30.05.2020 09:00:00 16,6 12,3 16 9 - - N 1022,9 - 0,0
30.05.2020 08:00:00 13,2 10,7 18 10 - - N 1022,9 - 0,0
30.05.2020 07:00:00 10,7 9,4 21 11 - - N 1022,9 - 0,0
30.05.2020 06:00:00 9,6 8,7 16 9 - - N 1022,9 - 0,0
30.05.2020 05:00:00 9,0 8,0 18 10 - - N 1023,1 - 0,0
30.05.2020 04:00:00 8,9 7,3 21 11 - - N 1023,3 - 0,0
30.05.2020 03:00:00 9,8 7,3 11 6 - - N 1023,6 - 0,0
30.05.2020 02:00:00 10,0 6,1 11 6 - - NNE 1023,8 - 0,0
30.05.2020 01:00:00 11,0 4,7 13 7 - - NNE 1024,2 - 0,0
30.05.2020 00:00:00 11,3 2,7 8 4 - - NNE 1024,3 - 0,0
29.05.2020 23:00:00 11,9 2,7 9 5 - - NNW 1024,5 - 0,0
29.05.2020 22:00:00 13,5 3,7 8 4 - - N 1024,4 - 0,0
29.05.2020 21:00:00 15,2 4,8 9 5 - - NNE 1024,0 - 0,0
29.05.2020 20:00:00 18,6 7,2 18 10 - - NE 1023,9 - 0,0
29.05.2020 19:00:00 20,4 8,9 18 10 - - ENE 1023,9 - 0,0
29.05.2020 18:00:00 18,4 11,1 18 10 - - ESE 1024,2 10 0,0
29.05.2020 17:00:00 19,0 9,5 16 9 - - ESE 1024,6 - 0,0
29.05.2020 16:00:00 19,8 6,9 18 10 - - SE 1025,1 - 0,0
29.05.2020 15:00:00 19,6 10,1 16 9 - - SE 1025,7 10 0,0
29.05.2020 14:00:00 20,6 9,0 18 10 - - SE 1026,2 10 0,0
29.05.2020 13:00:00 20,2 10,1 16 9 - - SE 1026,8 10 0,0
29.05.2020 12:00:00 21,0 9,0 13 7 - - SE 1027,5 10 0,0
29.05.2020 11:00:00 20,7 7,1 16 9 - - E 1028,0 10 0,0
29.05.2020 10:00:00 19,8 7,4 15 8 - - ENE 1028,1 10 0,0
29.05.2020 09:00:00 18,1 8,2 15 8 - - E 1028,1 - 0,0
29.05.2020 08:00:00 16,2 8,4 13 7 - - ENE 1028,3 - 0,0
29.05.2020 07:00:00 13,2 8,9 11 6 - - N 1028,4 - 0,0
29.05.2020 06:00:00 11,3 8,2 11 6 - - N 1028,5 - 0,0
29.05.2020 05:00:00 10,3 7,1 8 4 - - N 1028,6 - 0,0
29.05.2020 04:00:00 9,9 6,5 11 6 - - N 1029,0 - 0,0
29.05.2020 03:00:00 11,4 6,5 13 7 - - NNE 1029,2 - 0,0
29.05.2020 02:00:00 11,8 6,4 13 7 - - N 1029,4 - 0,0

tt = Température de l'air
td = dewpoint
ff = Vitesse du vent
fx = gusts
dd = Direction du vent
ppp = reduced air pressure
vv = visibility
rr = Quantités de précipitations

stations d'obs. à proximité